Location: Poughquag
(41.6090°N, 73.6820°W)
Time: 16:25:01
(UTC-04:00)

ITUPSAT 1 - Pass Details

Date: 22 June 2024
Orbit: 690 x 699 km, 98.4° (Epoch: 18 June)

Event Time Altitude Azimuth Distance (km) Brightness Sun altitude
Rises 22:21:51 0° 24° (NNE) 3,098 ? -15.7°
Reaches altitude 10° 22:24:22 10° 36° (NE) 2,176 ? -16.0°
Maximum altitude 22:28:31 29° 96° (E) 1,270 ? -16.4°
Enters shadow 22:29:39 26° 121° (ESE) 1,357 ? -16.6°
